KI5NYZ-13 Weather Reports


time (UTC)temp
F
wind
direction
speed
knots
gust
knots
rain 1hr
in
rain 24hr
in
rain mn
in
humidity
%
barometer
mb
20260509034039 70 35 4.3 4.3 0.00 0.00 0.00 43 1007.8
20260509031038 72 187 1.7 1.7 0.00 0.00 0.00 38 1005.9
20260509024037 75 176 1.7 3.5 0.00 0.00 0.00 29 1004.6
20260509021036 79 196 1.7 1.7 0.00 0.00 0.00 19 1003.2
20260509014035 83 188 0.9 1.7 0.00 0.00 0.00 18 1002.1
20260509011034 87 195 1.7 1.7 0.00 0.00 0.00 15 1001.0
20260509004033 88 185 0.9 0.9 0.00 0.00 0.00 14 1000.5
20260509001032 89 187 0.0 1.7 0.00 0.00 0.00 14 1000.3
20260508234031 89 243 2.6 6.1 0.00 0.00 0.00 14 1000.3
20260508231031 88 293 1.7 3.5 0.00 0.00 0.00 14 1000.5
20260508224030 88 51 0.9 2.6 0.00 0.00 0.00 15 1000.8
20260508221028 88 155 0.0 2.6 0.00 0.00 0.00 16 1000.8
20260508214028 87 256 3.5 7.0 0.00 0.00 0.00 17 1001.3
20260508211027 86 246 1.7 5.2 0.00 0.00 0.00 17 1001.9
20260508204025 86 196 1.7 5.2 0.00 0.00 0.00 18 1002.3
20260508201024 86 261 2.6 8.7 0.00 0.00 0.00 16 1002.9
20260508194023 84 328 4.3 11.3 0.00 0.00 0.00 23 1003.7
20260508191022 82 281 4.3 7.8 0.00 0.00 0.00 32 1004.4
20260508184021 80 231 3.5 7.8 0.00 0.00 0.00 38 1005.4
20260508181020 77 237 2.6 6.1 0.00 0.00 0.00 48 1006.8
20260508174019 75 234 2.6 5.2 0.00 0.00 0.00 54 1007.6
20260508171019 72 258 5.2 12.2 0.00 0.00 0.00 59 1008.5
20260508164017 70 233 5.2 12.2 0.00 0.00 0.00 63 1009.4
20260508161016 68 237 3.5 7.8 0.00 0.00 0.00 68 1010.2
20260508154015 65 233 1.7 5.2 0.00 0.00 0.00 74 1011.0
20260508151014 63 243 6.1 9.6 0.00 0.00 0.00 79 1011.6
20260508144013 63 220 3.5 8.7 0.00 0.00 0.00 80 1011.9
20260508141012 61 206 2.6 4.3 0.00 0.00 0.00 81 1012.1
20260508134011 60 200 1.7 4.3 0.00 0.00 0.00 83 1012.4
20260508131010 59 204 1.7 3.5 0.00 0.00 0.00 82 1012.4
20260508121030 58 237 0.9 2.6 0.00 0.00 0.00 84 1012.4
20260508053316 57 199 0.9 0.9 0.00 0.00 0.00 62 1013.9
20260508050315 59 202 1.7 1.7 0.00 0.00 0.00 58 1013.3
20260508043314 61 200 2.6 2.6 0.00 0.00 0.00 54 1013.2
20260508040313 62 193 3.5 3.5 0.00 0.02 0.00 51 1012.9